Date String (YYYY-MM-DD hh:mm:ss) UTC,Instrument flags,absolute air pressure of the measurement (hPa),sample flow rate (lpm),inlet stack bypass flow (lpm),air temperature of the measurement (°C),ambient temperature measured by the external sensor (°C),aerosol sample conditioner tube jacket temperature (°C),OPC LED temperature (°C),internal box temperature (°C),relative humidity of the measurement (%),span deviation,mass concentration of particles derived from Lorenz-Mie calculation of OPC scattering (μg/m³),mass concentration of particles derived from Lorenz-Mie calculation of OPC scattering (μg/m³),mass concentration of particles derived from Lorenz-Mie calculation of OPC scattering (μg/m³)
DateTimeUTC,F1_M11,P_M11,Q1_M11,Q2_M11,T1_M11,T2_M11,T3_M11,T4_M11,T5_M11,U1_M11,ZSPAN_M11,X2_M11,X0_M11,X1_M11
2023-11-09 06:00:00,SystemResetWarning,0835.2,5.01,000.00,019.2,018.5,000.0,027.6,020.5,25.0,0000.0,0002.67,0006.40,0002.28
2023-11-09 06:01:00,SystemResetWarning,0835.2,5.00,000.00,019.2,018.6,000.0,027.6,020.5,25.0,0000.0,0002.70,0006.60,0002.30
2023-11-09 06:02:00,SystemResetWarning,0835.3,4.99,000.00,019.2,018.6,000.0,027.6,020.4,25.0,0000.0,0002.71,0006.60,0002.31
2023-11-09 06:03:00,SystemResetWarning,0835.3,4.99,000.00,019.2,018.5,000.0,027.6,020.4,25.0,0000.0,0002.75,0006.21,0002.31
2023-11-09 06:04:00,SystemResetWarning,0835.3,4.99,000.00,019.2,018.5,000.0,027.6,020.4,25.0,0000.0,0002.83,0005.28,0002.33
2023-11-09 06:05:00,SystemResetWarning,0835.3,5.01,000.00,019.2,018.5,000.0,027.6,020.4,25.0,0000.0,0002.84,0005.07,0002.34
2023-11-09 06:06:00,SystemResetWarning,0835.3,5.00,000.00,019.3,018.7,000.0,027.6,020.8,24.9,0000.0,0002.91,0005.17,0002.37
2023-11-09 06:07:00,SystemResetWarning,0835.3,5.00,000.00,019.4,019.5,000.0,027.6,021.4,24.8,0000.0,0002.94,0005.18,0002.40
2023-11-09 06:08:00,SystemResetWarning,0835.3,4.99,000.00,019.6,019.9,000.0,027.7,021.5,24.5,0000.0,0002.89,0005.68,0002.42
2023-11-09 06:09:00,SystemResetWarning,0835.3,5.00,000.00,019.6,019.8,000.0,027.7,021.2,24.4,0000.0,0002.90,0006.06,0002.45
2023-11-09 06:10:00,SystemResetWarning,0835.2,4.99,000.00,019.6,019.6,000.0,027.8,021.0,24.4,0000.0,0002.96,0006.16,0002.50
2023-11-09 06:11:00,SystemResetWarning,0835.2,5.01,000.00,019.6,019.4,000.0,027.8,020.8,24.4,0000.0,0003.01,0005.69,0002.55
2023-11-09 06:12:00,SystemResetWarning,0835.2,5.00,000.00,019.6,019.3,000.0,027.8,020.8,24.4,0000.0,0003.02,0005.58,0002.58
2023-11-09 06:13:00,SystemResetWarning,0835.2,5.00,000.00,019.6,019.2,000.0,027.8,020.8,24.4,0000.0,0003.08,0005.61,0002.62
2023-11-09 06:14:00,SystemResetWarning,0835.2,5.00,000.00,019.6,019.2,000.0,027.8,020.8,24.4,0000.0,0003.10,0005.62,0002.67
2023-11-09 06:15:00,SystemResetWarning,0835.2,5.00,000.00,019.6,019.1,000.0,027.8,020.8,24.4,0000.0,0003.10,0005.54,0002.72
2023-11-09 06:16:00,SystemResetWarning,0835.2,5.00,000.00,019.6,019.1,000.0,027.8,020.8,24.4,0000.0,0003.15,0005.74,0002.78
2023-11-09 06:17:00,SystemResetWarning,0835.2,5.00,000.00,019.6,019.0,000.0,027.8,020.9,24.4,0000.0,0003.16,0005.70,0002.82
2023-11-09 06:18:00,SystemResetWarning,0835.2,5.00,000.00,019.6,019.0,000.0,027.9,020.9,24.4,0000.0,0003.19,0005.77,0002.86
2023-11-09 06:19:00,SystemResetWarning,0835.2,5.00,000.00,019.6,019.0,000.0,027.9,020.9,24.4,0000.0,0003.23,0004.75,0002.90
2023-11-09 06:20:00,SystemResetWarning,0835.2,5.00,000.00,019.6,019.0,000.0,027.9,020.8,24.4,0000.0,0003.26,0004.45,0002.93
2023-11-09 06:21:00,SystemResetWarning,0835.2,5.00,000.00,019.6,019.0,000.0,027.9,020.8,24.4,0000.0,0003.29,0004.51,0002.96
2023-11-09 06:22:00,SystemResetWarning,0835.2,5.00,000.00,019.6,019.0,000.0,027.9,020.9,24.4,0000.0,0003.30,0004.46,0002.97
2023-11-09 06:23:00,SystemResetWarning,0835.2,5.00,000.00,019.6,018.9,000.0,027.9,020.8,24.4,0000.0,0003.32,0004.55,0002.99
2023-11-09 06:24:00,SystemResetWarning,0835.2,5.00,000.00,019.6,018.9,000.0,027.9,020.8,24.4,0000.0,0003.36,0004.88,0003.00
2023-11-09 06:25:00,SystemResetWarning,0835.1,5.00,000.00,019.6,018.9,000.0,027.9,020.9,24.3,0000.0,0003.39,0005.27,0003.03
2023-11-09 06:26:00,SystemResetWarning,0835.1,5.00,000.00,019.6,018.9,000.0,027.9,020.8,24.3,0000.0,0003.43,0005.93,0003.04
2023-11-09 06:27:00,SystemResetWarning,0835.2,5.00,000.00,019.5,018.9,000.0,027.9,020.9,24.3,0000.0,0003.43,0006.03,0003.04
2023-11-09 06:28:00,SystemResetWarning,0835.2,5.00,000.00,019.5,018.9,000.0,027.9,020.8,24.3,0000.0,0003.44,0006.14,0003.04
2023-11-09 06:29:00,SystemResetWarning,0835.1,5.00,000.00,019.5,018.9,000.0,027.9,020.8,24.2,0000.0,0003.44,0006.21,0003.04
2023-11-09 06:30:00,SystemResetWarning,0835.1,5.01,000.00,019.5,018.9,000.0,027.9,020.7,24.1,0000.0,0003.44,0006.15,0003.04
2023-11-09 06:31:00,SystemResetWarning,0835.1,5.01,000.00,019.5,018.9,000.0,027.9,020.8,24.1,0000.0,0003.45,0006.18,0003.05
2023-11-09 06:32:00,SystemResetWarning,0835.2,4.99,000.00,019.5,018.9,000.0,027.9,020.9,24.1,0000.0,0003.44,0006.23,0003.05
2023-11-09 06:33:00,SystemResetWarning,0835.1,4.99,000.00,019.5,018.8,000.0,027.9,020.8,24.1,0000.0,0003.43,0006.25,0003.06
2023-11-09 06:34:00,SystemResetWarning,0835.2,5.00,000.00,019.5,018.8,000.0,027.9,020.8,24.1,0000.0,0003.43,0006.21,0003.06
2023-11-09 06:35:00,SystemResetWarning,0835.1,4.99,000.00,019.5,018.8,000.0,027.9,020.7,24.1,0000.0,0003.38,0005.83,0003.06
2023-11-09 06:36:00,SystemResetWarning,0835.1,5.00,000.00,019.5,018.8,000.0,027.9,020.7,24.1,0000.0,0003.34,0005.63,0003.02
2023-11-09 06:37:00,SystemResetWarning,0835.0,5.00,000.00,019.5,018.8,000.0,027.9,020.7,24.0,0000.0,0003.33,0005.00,0003.01
2023-11-09 06:38:00,SystemResetWarning,0834.9,5.00,000.00,019.5,018.8,000.0,027.9,020.7,24.0,0000.0,0003.31,0004.82,0002.99
2023-11-09 06:39:00,SystemResetWarning,0835.0,5.00,000.00,019.5,018.8,000.0,027.9,020.8,24.1,0000.0,0003.32,0004.89,0002.99
2023-11-09 06:40:00,SystemResetWarning,0835.0,5.00,000.00,019.5,018.8,000.0,027.9,020.7,24.1,0000.0,0003.30,0004.79,0002.98
2023-11-09 06:41:00,SystemResetWarning,0835.0,5.00,000.00,019.4,018.8,000.0,027.9,020.7,24.1,0000.0,0003.30,0004.99,0002.97
2023-11-09 06:42:00,SystemResetWarning,0835.0,5.01,000.00,019.4,018.8,000.0,027.9,020.8,24.1,0000.0,0003.31,0005.48,0002.96
2023-11-09 06:43:00,SystemResetWarning,0835.0,5.00,000.00,019.4,018.8,000.0,027.9,020.8,24.1,0000.0,0003.30,0005.42,0002.94
2023-11-09 06:44:00,SystemResetWarning,0834.9,5.00,000.00,019.4,018.8,000.0,027.9,020.7,24.1,0000.0,0003.32,0005.45,0002.95
2023-11-09 06:45:00,SystemResetWarning,0834.9,5.01,000.00,019.4,018.8,000.0,027.9,020.7,24.0,0000.0,0003.33,0005.51,0002.94
2023-11-09 06:46:00,SystemResetWarning,0835.1,5.01,000.00,019.5,019.0,000.0,027.8,021.1,24.0,0000.0,0003.34,0005.74,0002.94
2023-11-09 06:47:00,SystemResetWarning,0835.0,5.00,000.00,019.7,019.9,000.0,027.9,021.7,23.8,0000.0,0003.36,0005.70,0002.97
2023-11-09 06:48:00,SystemResetWarning,0834.9,4.99,000.00,019.8,020.4,000.0,027.9,021.8,23.5,0000.0,0003.35,0005.66,0002.97
2023-11-09 06:49:00,SystemResetWarning,0835.1,4.99,000.00,019.9,020.2,000.0,028.0,021.6,23.4,0000.0,0003.36,0005.73,0002.97
2023-11-09 06:50:00,SystemResetWarning,0835.3,5.00,000.00,019.9,020.0,000.0,028.0,021.3,23.4,0000.0,0003.34,0005.59,0002.95
2023-11-09 06:51:00,SystemResetWarning,0835.4,5.00,000.00,019.9,019.9,000.0,028.0,021.3,23.4,0000.0,0003.36,0006.02,0002.96
2023-11-09 06:52:00,SystemResetWarning,0834.8,5.00,000.00,019.9,019.8,000.0,028.0,021.3,23.4,0000.0,0003.34,0005.79,0002.96
2023-11-09 06:53:00,SystemResetWarning,0834.7,5.00,000.00,019.9,019.7,000.0,028.1,021.3,23.4,0000.0,0003.30,0005.15,0002.95
2023-11-09 06:54:00,SystemResetWarning,0834.7,5.00,000.00,019.9,019.6,000.0,028.1,021.4,23.3,0000.0,0003.29,0005.42,0002.96
2023-11-09 06:55:00,SystemResetWarning,0834.8,5.00,000.00,019.9,019.5,000.0,028.1,021.3,23.3,0000.0,0003.28,0005.42,0002.96
2023-11-09 06:56:00,SystemResetWarning,0834.7,5.00,000.00,019.9,019.5,000.0,028.1,021.4,23.3,0000.0,0003.26,0005.37,0002.96
2023-11-09 06:57:00,SystemResetWarning,0834.7,5.00,000.00,019.9,019.4,000.0,028.1,021.4,23.3,0000.0,0003.26,0005.17,0002.98
2023-11-09 06:58:00,SystemResetWarning,0834.7,5.00,000.00,019.9,019.4,000.0,028.1,021.4,23.3,0000.0,0003.24,0005.06,0002.97
2023-11-09 06:59:00,SystemResetWarning,0834.8,5.00,000.00,019.9,019.4,000.0,028.2,021.4,23.4,0000.0,0003.25,0005.05,0002.99
